Bluefield, WV

2:38 PM EST on January 17, 2017 (GMT -0500)
Mercer County

Weather History for KBLF - April, 2013

Change the Weather History Date:

Wednesday, April 17, 2013

  Actual Average Record
Temperature  
Mean Temperature 66 °F 56 °F  
Max Temperature 72 °F 66 °F 83 °F (1976)
Min Temperature 59 °F 46 °F 25 °F (2001)
Degree Days  
Heating Degree Days 0 10  
Month to date heating degree days 140 212  
Since 1 July heating degree days 4395 4321  
Cooling Degree Days 1 1  
Month to date cooling degree days 22 15  
Year to date cooling degree days 23 19  
Growing Degree Days 15 (Base 50)    
Moisture  
Dew Point 54 °F    
Average Humidity 68    
Maximum Humidity 87    
Minimum Humidity 49    
Precipitation  
Precipitation 0.43 in 0.11 in 1.55 in (1998)
Month to date precipitation 2.96 1.82  
Year to date precipitation 14.05 10.99  
Snow  
Snow 0.00 in - - ()
Month to date snowfall 0.9  
Since 1 July snowfall 56.0  
Snow Depth 0.00 in    
Sea Level Pressure  
Sea Level Pressure 30.20 in    
Wind  
Wind Speed 5 mph (WSW)    
Max Wind Speed 17 mph    
Max Gust Speed 22 mph    
Visibility 9 miles    
Events Rain , Thunderstorm    
T = Trace of Precipitation, MM = Missing Value Source: NWS Daily Summary

Daily Weather History Graph

Daily Weather History Graph

Search for Another Location

Airport or City:

Trip Planner

Search our weather history database for the weather conditions in past years. The results will help you decide how hot, cold, wet, or windy it might be!

Date:

Astronomy

Apr. 17, 2013 Rise Set
Actual Time 6:47 AM EDT 8:02 PM EDT
Civil Twilight 6:20 AM EDT 8:29 PM EDT
Nautical Twilight 5:47 AM EDT 9:01 PM EDT
Astronomical Twilight 5:14 AM EDT 9:35 PM EDT
Moon 12:02 PM EDT 1:36 AM EDT
Length of Visible Light 14h 08m
Length of Day
13h 14m
Waxing Crescent, 42% of the Moon is Illuminated
Apr 17
Waxing Crescent
Apr 18
First Quarter
Apr 25
Full
May 2
Last Quarter
May 9
New

Hourly Weather History & Observations

Time (EDT) Temp. Dew Point Humidity Pressure Visibility Wind Dir Wind Speed Gust Speed Precip Events Conditions
12:52 AM 66.0 °F 53.1 °F 63% 30.19 in 10.0 mi NNW 11.5 mph 20.7 mph N/A   Mostly Cloudy
1:52 AM 64.0 °F 54.0 °F 70% 30.17 in 10.0 mi SSE 4.6 mph - 0.00 in Rain Light Rain
2:52 AM 61.0 °F 55.9 °F 83% 30.16 in 10.0 mi Calm Calm - 0.01 in Rain Light Rain
3:52 AM 61.0 °F 55.9 °F 83% 30.16 in 10.0 mi NNE 4.6 mph - 0.01 in Rain Light Rain
4:09 AM 60.8 °F 55.4 °F 82% 30.25 in 10.0 mi Variable 3.5 mph - 0.01 in Rain , Thunderstorm Light Thunderstorms and Rain
4:32 AM 60.8 °F 55.4 °F 82% 30.30 in 2.5 mi NW 9.2 mph - 0.15 in Rain , Thunderstorm Thunderstorms and Rain
4:40 AM 60.8 °F 55.4 °F 82% 30.30 in 3.0 mi West 6.9 mph - 0.19 in Rain , Thunderstorm Heavy Thunderstorms and Rain
4:52 AM 60.1 °F 55.9 °F 86% 30.19 in 6.0 mi WSW 4.6 mph - 0.21 in Rain Light Rain
5:20 AM 60.8 °F 55.4 °F 82% 30.28 in 3.0 mi WSW 8.1 mph - 0.06 in Rain Rain
5:39 AM 60.8 °F 55.4 °F 82% 30.29 in 4.0 mi WSW 9.2 mph - 0.10 in Rain Rain
5:52 AM 60.1 °F 55.9 °F 86% 30.18 in 5.0 mi WSW 9.2 mph - 0.13 in Rain Rain
6:52 AM 60.1 °F 54.0 °F 80% 30.15 in 10.0 mi West 5.8 mph - 0.05 in   Overcast
7:52 AM 61.0 °F 54.0 °F 78% 30.17 in 10.0 mi Calm Calm - N/A   Scattered Clouds
8:52 AM 62.1 °F 54.0 °F 75% 30.22 in 10.0 mi West 5.8 mph - N/A   Clear
9:09 AM 60.8 °F 55.4 °F 82% 30.32 in 10.0 mi West 12.7 mph - N/A   Scattered Clouds
9:11 AM 60.8 °F 55.4 °F 82% 30.32 in 10.0 mi West 10.4 mph - N/A   Mostly Cloudy
9:52 AM 59.0 °F 55.0 °F 87% 30.25 in 10.0 mi West 11.5 mph - 0.00 in Rain Light Rain
10:22 AM 59.0 °F 55.4 °F 88% 30.31 in 10.0 mi West 11.5 mph - 0.00 in Rain Light Rain
10:52 AM 59.0 °F 55.0 °F 87% 30.25 in 10.0 mi West 10.4 mph - 0.01 in Rain Light Rain
11:24 AM 59.0 °F 55.4 °F 88% 30.32 in 10.0 mi West 11.5 mph - 0.01 in Rain Light Rain
11:52 AM 60.1 °F 55.9 °F 86% 30.24 in 10.0 mi WSW 15.0 mph - 0.01 in Rain Light Rain
12:52 PM 62.1 °F 54.0 °F 75% 30.19 in 10.0 mi WNW 9.2 mph - 0.00 in   Overcast
1:52 PM 64.0 °F 54.0 °F 70% 30.17 in 10.0 mi Variable 3.5 mph - N/A   Mostly Cloudy
2:52 PM 68.0 °F 53.1 °F 59% 30.16 in 10.0 mi North 4.6 mph - N/A   Clear
3:52 PM 69.1 °F 55.0 °F 61% 30.15 in 10.0 mi NNE 5.8 mph - N/A   Clear
5:52 PM 71.1 °F 52.0 °F 51% 30.13 in 10.0 mi ESE 3.5 mph - N/A   Clear
6:52 PM 70.0 °F 50.0 °F 49% 30.12 in 10.0 mi Variable 3.5 mph - N/A   Clear
7:52 PM 68.0 °F 51.1 °F 55% 30.10 in 10.0 mi South 3.5 mph - N/A   Clear
8:52 PM 68.0 °F 51.1 °F 55% 30.11 in 10.0 mi SE 4.6 mph - N/A   Clear
9:52 PM 66.9 °F 51.1 °F 57% 30.14 in 10.0 mi Calm Calm - N/A   Clear
10:52 PM 64.9 °F 52.0 °F 63% 30.13 in 10.0 mi SSE 5.8 mph - N/A   Clear
11:52 PM 64.9 °F 52.0 °F 63% 30.10 in 10.0 mi SSE 3.5 mph - N/A   Clear